Weather History for Charleroi, Belgium

Change the Weather History Date:

Wednesday, October 3, 2012

  Actual Average Record
Temperature  
Mean Temperature 56 °F -  
Max Temperature 58 °F 55 °F 77 °F (2011)
Min Temperature 53 °F 43 °F 39 °F (1998)
Degree Days  
Heating Degree Days 10    
Growing Degree Days 6 (Base 50)    
Moisture  
Dew Point 51 °F    
Average Humidity 87    
Maximum Humidity 94    
Minimum Humidity 75    
Precipitation  
Precipitation 0.24 in - - ()
Sea Level Pressure  
Sea Level Pressure 29.85 in    
Wind  
Wind Speed 14 mph ()    
Max Wind Speed 21 mph    
Max Gust Speed 32 mph    
Visibility 7.2 miles    
Events Rain    
Averages and records for this station are not official NWS values.
T = Trace of Precipitation, MM = Missing Value Source: Averaged Metar Reports

Daily Weather History Graph

Daily Weather History Graph

Search for Another Location

Airport:

Trip Planner

Search our weather history database for the weather conditions in past years. The results will help you decide how hot, cold, wet, or windy it might be!

Date:

Astronomy

Oct. 03, 2012 Rise Set
Actual Time 7:45 AM CEST 7:15 PM CEST
Civil Twilight 7:13 AM CEST 7:47 PM CEST
Nautical Twilight 6:35 AM CEST 8:25 PM CEST
Astronomical Twilight 5:56 AM CEST 9:04 PM CEST
Moon 8:31 PM CEST (10/3) 11:19 AM CEST (10/3)
Length of Visible Light 12h 34m
Length of Day
11h 29m
Waning Gibbous, 90% of the Moon is Illuminated
Oct 3
Waning Gibbous
Oct 8
Last Quarter
Oct 15
New
Oct 22
First Quarter
Oct 29
Full

Hourly Weather History & Observations

Time (CEST) Temp. Dew Point Humidity Pressure Visibility Wind Dir Wind Speed Gust Speed Precip Events Conditions
12:20 AM 53.6 °F 50.0 °F 88% 29.92 in 6.2 mi SSW 13.8 mph - N/A   Partly Cloudy
12:50 AM 55.4 °F 50.0 °F 82% 29.92 in 6.2 mi SSW 13.8 mph - N/A   Partly Cloudy
1:20 AM 55.4 °F 50.0 °F 82% 29.92 in 6.2 mi SSW 13.8 mph - N/A   Partly Cloudy
1:50 AM 55.4 °F 50.0 °F 82% 29.92 in - SSW 12.7 mph - N/A   Clear
2:00 AM 55 °F 50 °F 77% 29.92 in 19 mi SSW 13.4 mph - -   Mostly Cloudy
2:20 AM 55.4 °F 50.0 °F 82% 29.92 in 6.2 mi SSW 15.0 mph - N/A Rain Light Rain
2:50 AM 55.4 °F 51.8 °F 88% 29.89 in 6.2 mi SSW 13.8 mph - N/A Rain Light Rain
3:20 AM 55.4 °F 51.8 °F 88% 29.89 in 6.2 mi SSW 15.0 mph - N/A Rain Light Rain
3:50 AM 55.4 °F 51.8 °F 88% 29.89 in 6.2 mi SSW 15.0 mph - N/A Rain Light Rain
4:20 AM 55.4 °F 51.8 °F 88% 29.89 in 6.2 mi SSW 16.1 mph - N/A   Mostly Cloudy
4:50 AM 55.4 °F 51.8 °F 88% 29.86 in 6.2 mi SSW 17.3 mph - N/A   Mostly Cloudy
5:00 AM 54 °F 51 °F 87% 29.88 in 16 mi SSW 15.7 mph - - Rain Light Rain
5:20 AM 55.4 °F 50.0 °F 82% 29.86 in 6.2 mi SSW 15.0 mph - N/A   Scattered Clouds
5:50 AM 55.4 °F 50.0 °F 82% 29.86 in 6.2 mi SSW 15.0 mph - N/A   Scattered Clouds
6:20 AM 55.4 °F 50.0 °F 82% 29.86 in 6.2 mi SSW 16.1 mph - N/A   Scattered Clouds
6:50 AM 55.4 °F 50.0 °F 82% 29.86 in 6.2 mi SSW 20.7 mph - N/A   Scattered Clouds
7:20 AM 55.4 °F 50.0 °F 82% 29.86 in 6.2 mi SSW 17.3 mph - N/A   Scattered Clouds
7:50 AM 53.6 °F 50.0 °F 88% 29.86 in 6.2 mi SSW 16.1 mph - N/A   Scattered Clouds
8:00 AM 54 °F 50 °F 83% 29.86 in 19 mi SSW 15.7 mph - -   Partly Cloudy
8:20 AM 55.4 °F 50.0 °F 82% 29.86 in 6.2 mi SSW 17.3 mph - N/A   Scattered Clouds
8:50 AM 55.4 °F 50.0 °F 82% 29.83 in 6.2 mi SSW 17.3 mph - N/A   Scattered Clouds
9:20 AM 55.4 °F 50.0 °F 82% 29.86 in 6.2 mi SSW 17.3 mph - N/A   Scattered Clouds
9:50 AM 57.2 °F 50.0 °F 77% 29.86 in 6.2 mi SSW 18.4 mph 32.2 mph N/A   Scattered Clouds
10:20 AM 57.2 °F 50.0 °F 77% 29.86 in 6.2 mi SSW 19.6 mph - N/A   Scattered Clouds
10:50 AM 55.4 °F 51.8 °F 88% 29.86 in 6.2 mi SW 17.3 mph - N/A Rain Light Rain
11:00 AM 56 °F 51 °F 79% 29.87 in 12 mi SW 17.9 mph - - Rain Light Rain
11:20 AM 55.4 °F 51.8 °F 88% 29.86 in 3.7 mi SSW 16.1 mph - N/A Rain Light Rain
11:50 AM 55.4 °F 51.8 °F 88% 29.86 in 6.2 mi SSW 13.8 mph - N/A   Mostly Cloudy
12:20 PM 55.4 °F 53.6 °F 94% 29.86 in 6.2 mi SSW 15.0 mph - N/A   Mostly Cloudy
12:50 PM 57.2 °F 53.6 °F 88% 29.86 in 6.2 mi SSW 17.3 mph - N/A   Mostly Cloudy
1:20 PM 59.0 °F 51.8 °F 77% 29.86 in 6.2 mi SSW 18.4 mph - N/A   Mostly Cloudy
1:50 PM 59.0 °F 51.8 °F 77% 29.86 in 6.2 mi SW 17.3 mph - N/A   Mostly Cloudy
2:00 PM 58 °F 52 °F 75% 29.88 in 19 mi SW 17.9 mph - -   Partly Cloudy
2:20 PM 53.6 °F 51.8 °F 94% 29.86 in 2.5 mi West 10.4 mph - N/A Rain Rain Showers
2:50 PM 57.2 °F 53.6 °F 88% 29.83 in 6.2 mi SSW 12.7 mph 24.2 mph N/A   Scattered Clouds
3:20 PM 57.2 °F 53.6 °F 88% 29.83 in 6.2 mi SSW 18.4 mph - N/A   Mostly Cloudy
3:50 PM 57.2 °F 53.6 °F 88% 29.83 in 6.2 mi SSW 17.3 mph - N/A   Mostly Cloudy
4:20 PM 57.2 °F 53.6 °F 88% 29.83 in 6.2 mi SSW 16.1 mph - N/A   Scattered Clouds
4:50 PM 57.2 °F 53.6 °F 88% 29.83 in 6.2 mi SSW 16.1 mph - N/A   Scattered Clouds
5:00 PM 57 °F 53 °F 83% 29.84 in 14 mi SSW 15.7 mph - - Rain Light Rain
5:20 PM 55.4 °F 51.8 °F 88% 29.83 in 6.2 mi SSW 16.1 mph - N/A Rain Light Rain
5:50 PM 53.6 °F 50.0 °F 88% 29.83 in 5.6 mi SSW 13.8 mph - N/A Rain Light Rain
6:20 PM 53.6 °F 51.8 °F 94% 29.83 in 6.2 mi SSW 11.5 mph - N/A Rain Light Rain
6:50 PM 53.6 °F 51.8 °F 94% 29.83 in 6.2 mi SSW 8.1 mph - N/A Rain Light Rain
7:20 PM 53.6 °F 51.8 °F 94% 29.80 in 6.2 mi SSW 10.4 mph - N/A Rain Light Rain
7:50 PM 53.6 °F 51.8 °F 94% 29.80 in 6.2 mi SW 8.1 mph - N/A Rain Light Rain
8:00 PM 53 °F 52 °F 94% 29.83 in 6 mi SW 8.9 mph - - Rain Light Rain
8:20 PM 53.6 °F 51.8 °F 94% 29.80 in 5.0 mi SW 8.1 mph - N/A Rain Light Rain
8:50 PM 53.6 °F 51.8 °F 94% 29.80 in 6.2 mi SSW 11.5 mph - N/A Rain Light Rain
9:20 PM 53.6 °F 51.8 °F 94% 29.80 in 6.2 mi SW 11.5 mph - N/A Rain Light Rain
9:50 PM 53.6 °F 51.8 °F 94% 29.80 in 5.0 mi SSW 13.8 mph - N/A Rain Light Rain
10:20 PM 53.6 °F 51.8 °F 94% 29.80 in 5.0 mi SSW 12.7 mph - N/A Rain Light Rain
10:50 PM 53.6 °F 51.8 °F 94% 29.77 in 6.2 mi SSW 12.7 mph - N/A Rain Light Rain
11:00 PM 54 °F 53 °F 94% 29.80 in 9 mi SSW 13.4 mph - - Rain Light Rain
11:20 PM 55.4 °F 53.6 °F 94% 29.77 in 6.2 mi SW 16.1 mph - N/A Rain Light Rain
11:50 PM 55.4 °F 53.6 °F 94% 29.77 in 6.2 mi SW 17.3 mph - N/A   Mostly Cloudy